Location: Chervonnoye
(48.6000°N, 34.4000°E)
Time: 15:41:13
(UTC+00:00)

KAITUO 1B - Visible Passes

Search period start: 28 November 2021 00:00
Search period end: 08 December 2021 00:00
Orbit: 490 x 506 km, 97.4° (Epoch: 28 November)

Date Brightness Start Highest point End Pass type
(mag) Time Alt. Az. Time Alt. Az. Time Alt. Az.
28 Nov ? 03:45:08 10° NNE 03:48:30 31° E 03:51:51 10° SSE visible
28 Nov ? 14:26:46 10° ESE 14:29:49 25° ENE 14:32:54 10° N visible
28 Nov ? 16:00:14 10° SSW 16:03:27 28° W 16:06:42 10° NW visible
29 Nov ? 03:25:25 10° NE 03:28:11 19° E 03:30:56 10° SE visible
29 Nov ? 15:39:36 10° S 15:43:10 47° W 15:46:47 10° NNW visible
30 Nov ? 03:06:19 10° ENE 03:07:48 12° E 03:09:16 10° ESE visible
30 Nov ? 15:19:15 10° SSE 15:22:56 83° WSW 15:26:41 10° NNW visible
01 Dec ? 04:17:59 10° NNE 04:21:44 77° ESE 04:25:26 10° S visible
01 Dec ? 14:59:09 10° SSE 15:02:46 57° ENE 15:06:26 10° N visible
01 Dec ? 16:35:08 10° WSW 16:36:51 13° W 16:38:34 10° WNW visible
02 Dec ? 03:57:54 10° NNE 04:01:29 44° E 04:05:02 10° S visible
02 Dec ? 14:39:18 10° SE 14:42:39 34° ENE 14:46:02 10° N visible
02 Dec ? 16:13:37 10° SW 16:16:27 21° W 16:19:19 10° NW visible
03 Dec ? 03:37:59 10° NE 03:41:10 26° E 03:44:21 10° SSE visible
03 Dec ? 14:19:43 10° ESE 14:22:35 21° ENE 14:25:27 10° NNE visible
03 Dec ? 15:52:43 10° SSW 15:56:07 34° W 15:59:32 10° NNW visible
04 Dec ? 03:18:24 10° NE 03:20:48 16° E 03:23:12 10° SE visible
04 Dec ? 15:32:11 10° S 15:35:50 58° W 15:39:32 10° NNW visible
05 Dec ? 04:30:51 10° N 04:34:35 75° WNW 04:38:16 10° SSW visible
05 Dec ? 15:11:53 10° SSE 15:15:36 81° ENE 15:19:20 10° N visible
06 Dec ? 04:10:39 10° NNE 04:14:21 63° E 04:18:01 10° S visible
06 Dec ? 14:51:52 10° SE 14:55:25 46° ENE 14:59:01 10° N visible
06 Dec ? 16:27:07 10° SW 16:29:23 15° W 16:31:40 10° NW visible
07 Dec ? 03:50:36 10° NNE 03:54:04 36° E 03:57:29 10° SSE visible
07 Dec ? 14:32:04 10° SE 14:35:17 28° ENE 14:38:31 10° N visible
07 Dec ? 16:05:54 10° SSW 16:08:58 25° W 16:12:06 10° NW visible
